POPACS 1

Last updated on Tue Sep 16 2025 00:03:47 GMT+0000 (Coordinated Universal Time)

1 39268U 13055D 25258.17042144 .00150667 49049-5 10013-2 0 9990 2 39268 80.9648 325.3458 0190386 3.7115 356.5489 15.54499543629713
UTC large
Height (km)
Speed (km/s)
/
Latitude / Longitude
Inclination (degrees)
Orbital Period (minutes)
Azimuth
Elevation
Range (km)
Doppler Factor

Next 0 passes for location: London (51.5072 / 0.1276)

Sorry there are no passes over London.